#timestamp,LO_Frequency,Hit,StdDev 
1655496015.5,286046999.7,N
1655496035.3,286047000.2,N
1655496055.2,286047000.2,N
1655496075.0,286047000.4,N
1655496075.9,286047000.4,N
1655496095.8,286047002.8,N
1655496115.6,286046999.9,N
1655496135.4,286047000.2,N
1655496155.3,286047000.9,N
1655496175.1,286047000.6,N
1655496195.8,286047000.4,N
1655496215.7,286046999.8,N
1655496235.5,286047002.4,N
1655496255.4,286047000.1,N
1655496275.2,286046999.7,N
1655496295.0,286047000.1,N
1655496295.9,286047000.1,N
1655496315.8,286046999.7,N
1655496335.6,286047002.8,N
1655496355.5,286047002.8,N
1655496375.3,286047000.0,N
1655496395.1,286046999.9,N
1655496415.9,286046999.9,N
1655496435.7,286047002.8,N
1655496455.5,286047000.5,N
1655496475.4,286047002.7,N
1655496495.2,286047002.4,N
1655496515.1,286047002.4,N
1655496516.0,286047002.4,N
1655496535.8,286047000.2,N
1655496555.6,286047002.7,N
1655496575.5,286046999.8,N
1655496595.3,286047001.8,N
1655496615.2,286047002.2,N
1655496635.9,286047001.4,N
1655496655.7,286047002.2,N
1655496675.6,286047002.2,N
1655496695.4,286047001.9,N
1655496715.3,286047001.4,N
1655496735.1,286047001.3,N
1655496736.0,286047001.3,N
1655496755.8,286047002.0,N
1655496775.7,286047002.5,N
1655496795.5,286047002.0,N
1655496815.3,286047002.2,N
1655496835.2,286047004.4,Y
1655496855.0,286047002.8,P
1655496855.9,286047002.8,P
1655496875.8,286046999.8,N
1655496895.6,286047002.6,N
1655496915.4,286047000.0,N
1655496935.3,286046999.9,N
1655496955.1,286047000.3,N
1655496975.9,286047000.2,N
1655496995.7,286047002.8,N
1655497015.5,286047002.8,N
1655497035.4,286047000.2,N
1655497055.2,286047002.4,N
1655497075.0,286047002.6,N
1655497075.9,286047002.6,N
1655497095.8,286047002.5,N
1655497115.6,286047002.5,N
1655497135.5,286047002.5,N
1655497155.3,286047002.7,N
1655497175.1,286047002.7,N
1655497195.9,286047000.1,N
1655497215.7,286047001.6,N
1655497235.6,286047002.0,N
1655497255.4,286047004.3,Y
1655497275.2,286047006.2,P
1655497295.1,286047007.7,P
1655497296.0,286047007.7,P
1655497315.8,286047007.0,N
1655497335.6,286047004.6,N
1655497355.5,286047003.6,N
1655497375.3,286047004.0,N
1655497395.2,286047001.7,N
1655497415.9,286047002.6,N
1655497435.7,286047001.0,N
1655497455.6,286047000.8,N
1655497475.4,286047000.6,N
1655497495.2,286046998.4,N
1655497515.1,286046999.2,N
1655497516.0,286046999.2,N
1655497535.8,286046997.2,N
1655497555.7,286046997.8,N
1655497575.6,286046995.4,N
1655497595.4,286046995.3,N
1655497615.2,286046996.8,N
1655497635.1,286046997.9,N
1655497636.0,286046997.9,N
1655497655.8,286046997.0,N
1655497675.6,286046999.0,N
1655497695.5,286046999.0,N
1655497715.3,286046999.6,N
1655497735.2,286046997.5,N
1655497755.9,286046999.3,N
1655497775.7,286047005.7,N
1655497795.6,286047003.3,N
1655497815.4,286047004.0,N
1655497835.2,286047004.4,N
1655497855.1,286047001.8,N
1655497856.0,286047001.8,N
1655497875.8,286047000.6,N
1655497895.7,286047001.0,N
1655497915.5,286047000.6,N
1655497935.3,286046998.5,N
1655497955.2,286046996.5,N
1655497975.0,286046997.0,N
1655497975.9,286046997.0,N
1655497995.8,286046997.2,N
1655498015.6,286046996.6,N
1655498035.4,286046997.0,N
1655498055.3,286046998.5,N
1655498075.1,286046996.8,N
1655498095.9,286046997.8,N
1655498115.7,286046997.0,N
1655498135.5,286046997.4,N
1655498155.4,286046997.1,N
1655498175.2,286046997.5,N
1655498195.0,286046995.0,N
1655498195.9,286046995.0,N
1655498215.8,286046995.5,N
1655498235.6,286046998.0,N
1655498255.4,286046997.3,N
1655498275.3,286046997.6,N
1655498295.1,286046996.6,N
1655498315.9,286046997.8,N
1655498335.7,286046995.7,N
1655498355.5,286046996.2,N
1655498375.4,286046994.9,N
1655498395.2,286046995.1,N
1655498415.0,286046995.7,N
1655498415.9,286046995.7,N
1655498435.8,286046993.5,Y
1655498455.6,286046997.6,P
1655498475.5,286046997.6,P
1655498495.3,286046997.6,P
1655498515.1,286046996.9,Y
1655498535.9,286047001.0,P
1655498555.7,286046998.2,N
1655498575.6,286047001.1,N
1655498595.4,286047000.7,N
1655498615.2,286047001.2,N
1655498635.1,286046998.2,N
1655498636.0,286046998.2,N
1655498655.8,286047001.0,N
1655498675.6,286046998.5,N
1655498695.5,286047000.5,N
1655498715.3,286047001.0,N
1655498735.1,286046998.6,N
1655498755.9,286046999.1,N
1655498775.7,286046997.0,N
1655498795.6,286046996.5,N
1655498815.4,286046999.6,N
1655498835.2,286046996.9,N
1655498855.1,286046999.2,N
1655498856.0,286046999.2,N
1655498875.8,286047000.8,N
1655498895.6,286047001.0,N
1655498915.5,286047000.5,N
1655498935.3,286046998.1,N
1655498955.2,286046999.3,N
1655498975.9,286046999.1,N
1655498995.7,286046999.3,N
1655499015.6,286046999.5,N
1655499035.4,286046999.6,N
1655499055.2,286046997.6,N
1655499075.1,286046997.6,N
1655499076.0,286046997.6,N
1655499095.8,286046997.3,N
1655499115.7,286046998.0,N
1655499135.5,286046996.8,N
1655499155.3,286046999.1,N
1655499175.2,286046999.6,N
1655499195.9,286046998.9,N
1655499215.7,286046999.2,N
1655499235.6,286046997.6,N
1655499255.4,286046997.2,N
1655499275.3,286046997.8,N
1655499295.1,286046999.2,N
1655499296.0,286046999.2,N
1655499315.8,286046996.7,N
1655499335.7,286046997.1,N
1655499355.5,286046997.6,N
1655499375.3,286046997.7,N
1655499395.2,286046996.8,N
1655499415.0,286046997.1,N
1655499415.9,286046997.1,N
1655499435.8,286046999.2,N
1655499455.6,286046999.3,N
1655499475.4,286046998.2,N
1655499495.3,286046998.8,N
1655499515.1,286046998.8,N
1655499535.8,286046999.4,N
1655499555.7,286046996.5,Y
1655499575.5,286047000.7,P
1655499595.4,286046998.6,N
